Location: Fort Worth, Tx
(32.7431°N, 97.3695°W)
Time: 18:43:37
(UTC-05:00)

X-37B - Pass Details

Date: 07 December 2022
Orbit: 277 x 277 km, 45.0° (Epoch: 01 November)

Event Time Altitude Azimuth Distance (km) Brightness Sun altitude
Rises 19:59:47 0° 278° (W) 1,906 5.3 -19.8°
Reaches altitude 10° 20:02:28 10° 311° (NW) 1,096 3.3 -20.3°
Enters shadow 20:02:51 11° 320° (NW) 1,033 3.0 -20.4°
